GFSNE_700_temp_021.txt.gz
Temp
-13 -13 -14 -15 -15 -15 -15 -16 -16 -15 -15 -15 -16 -17 -17 -17 -17 -17 -15 -14 -13 -13 -13 -13 -13 -12 -13 -12 -12 -11 -10 -9 -7 -6 -6 -5 -5 -5
-13 -14 -15 -15 -15 -16 -16 -16 -16 -16 -16 -16 -16 -17 -17 -18 -18 -17 -15 -14 -14 -14 -14 -14 -13 -13 -13 -13 -13 -12 -11 -10 -9 -7 -5 -6 -6 -5
-13 -15 -15 -15 -16 -16 -16 -17 -17 -17 -17 -16 -17 -16 -16 -16 -16 -16 -16 -15 -14 -15 -15 -15 -14 -14 -14 -13 -13 -13 -12 -11 -10 -9 -8 -7 -6 -6
-15 -15 -15 -16 -16 -16 -17 -17 -18 -18 -18 -17 -15 -16 -16 -16 -16 -16 -16 -18 -17 -16 -17 -16 -16 -15 -15 -14 -14 -13 -12 -11 -11 -10 -10 -7 -8 -7
-15 -15 -15 -16 -16 -16 -16 -16 -16 -16 -16 -16 -15 -16 -16 -16 -17 -18 -19 -18 -18 -18 -16 -16 -16 -16 -16 -15 -14 -14 -13 -12 -12 -11 -10 -8 -8 -8
-15 -16 -16 -16 -16 -16 -16 -16 -16 -16 -16 -16 -17 -17 -17 -17 -19 -19 -19 -19 -19 -18 -17 -16 -16 -16 -16 -16 -15 -14 -13 -12 -12 -11 -11 -9 -9 -8
-16 -16 -16 -16 -16 -16 -16 -16 -16 -16 -17 -17 -17 -17 -18 -19 -20 -19 -19 -19 -19 -18 -17 -17 -16 -17 -17 -16 -16 -15 -14 -14 -12 -12 -10 -10 -9 -9
-16 -16 -16 -16 -16 -16 -16 -16 -16 -17 -17 -18 -18 -18 -18 -19 -20 -20 -20 -20 -19 -19 -18 -18 -17 -17 -17 -17 -17 -15 -14 -14 -13 -12 -11 -11 -10 -10
-16 -16 -16 -17 -17 -17 -17 -17 -17 -17 -18 -17 -18 -18 -19 -20 -20 -20 -20 -20 -20 -19 -19 -18 -18 -18 -18 -17 -17 -15 -15 -14 -13 -12 -11 -11 -11 -10
-16 -16 -16 -17 -17 -17 -17 -17 -17 -18 -18 -18 -19 -19 -19 -19 -20 -20 -20 -20 -20 -20 -19 -19 -19 -19 -18 -18 -18 -15 -15 -14 -13 -12 -12 -12 -11 -11
-16 -16 -17 -17 -17 -18 -17 -17 -18 -18 -18 -18 -18 -19 -19 -19 -20 -20 -20 -20 -20 -20 -20 -19 -19 -19 -18 -18 -18 -16 -15 -14 -14 -12 -12 -12 -11 -11
-16 -17 -17 -17 -18 -18 -18 -18 -18 -18 -18 -18 -18 -19 -19 -19 -20 -20 -20 -21 -21 -20 -20 -19 -19 -19 -19 -18 -17 -16 -15 -15 -14 -14 -13 -13 -12 -12
-16 -17 -17 -18 -18 -18 -18 -18 -18 -18 -18 -18 -19 -19 -19 -19 -20 -21 -21 -21 -21 -20 -20 -20 -19 -19 -19 -18 -17 -17 -16 -15 -15 -14 -14 -13 -13 -12
-17 -17 -17 -18 -18 -18 -18 -18 -18 -19 -18 -18 -19 -19 -19 -19 -20 -20 -20 -20 -20 -20 -20 -20 -20 -19 -18 -18 -18 -17 -16 -15 -15 -15 -14 -14 -14 -14
-17 -17 -17 -18 -18 -18 -18 -18 -18 -18 -19 -19 -19 -19 -19 -19 -20 -20 -20 -19 -19 -19 -19 -19 -19 -19 -19 -19 -18 -18 -17 -16 -15 -15 -15 -14 -14 -14
-17 -17 -17 -18 -18 -18 -18 -18 -18 -19 -19 -19 -19 -19 -19 -19 -19 -19 -19 -19 -19 -19 -19 -19 -19 -19 -19 -18 -18 -18 -17 -16 -16 -16 -15 -15 -14 -14
-17 -17 -17 -17 -18 -18 -18 -18 -18 -19 -19 -19 -19 -19 -19 -19 -19 -19 -19 -19 -18 -18 -18 -18 -19 -18 -18 -18 -18 -17 -17 -17 -16 -15 -15 -15 -15 -14
-17 -17 -17 -17 -17 -18 -18 -18 -18 -19 -19 -19 -19 -19 -19 -19 -19 -19 -19 -19 -19 -18 -19 -19 -18 -18 -18 -18 -18 -18 -18 -17 -17 -16 -16 -15 -15 -15
-17 -17 -17 -17 -17 -18 -18 -18 -18 -18 -19 -19 -19 -19 -19 -19 -19 -19 -19 -19 -19 -19 -19 -19 -18 -18 -18 -18 -18 -18 -18 -18 -17 -17 -17 -16 -16 -15
-17 -17 -17 -17 -17 -17 -18 -18 -18 -18 -18 -19 -19 -19 -19 -19 -19 -19 -19 -19 -19 -19 -19 -19 -19 -18 -18 -18 -17 -18 -18 -18 -18 -18 -17 -17 -17 -16
-17 -17 -17 -17 -17 -17 -18 -18 -18 -18 -18 -18 -19 -19 -19 -19 -19 -19 -19 -19 -19 -19 -19 -19 -18 -18 -18 -18 -18 -18 -18 -18 -18 -18 -18 -18 -18 -17
-17 -17 -17 -17 -17 -17 -17 -18 -18 -18 -18 -18 -19 -19 -19 -19 -19 -19 -19 -19 -19 -19 -18 -18 -18 -18 -18 -18 -18 -18 -18 -18 -18 -18 -18 -18 -18 -17
-17 -17 -17 -17 -17 -17 -18 -18 -18 -18 -18 -18 -18 -19 -19 -19 -19 -19 -19 -19 -19 -19 -19 -18 -18 -18 -18 -18 -18 -18 -18 -18 -18 -18 -18 -18 -18 -18

GFSNE_700_temp_024.txt.gz
Temp
-11 -12 -12 -13 -13 -14 -14 -15 -15 -15 -14 -14 -14 -15 -15 -16 -15 -15 -15 -14 -14 -14 -14 -13 -13 -13 -13 -13 -13 -12 -12 -11 -10 -9 -8 -7 -6 -5
-12 -13 -13 -13 -14 -14 -14 -15 -15 -16 -16 -15 -15 -16 -16 -15 -16 -15 -15 -15 -14 -14 -14 -14 -13 -13 -13 -13 -13 -13 -13 -12 -11 -11 -10 -8 -7 -6
-13 -13 -13 -14 -14 -14 -14 -15 -16 -16 -16 -15 -15 -16 -16 -16 -16 -16 -15 -15 -15 -15 -14 -14 -14 -14 -14 -14 -14 -14 -14 -13 -12 -11 -11 -10 -9 -7
-13 -14 -14 -14 -14 -15 -15 -15 -16 -16 -16 -16 -15 -16 -16 -16 -16 -16 -16 -16 -16 -15 -16 -16 -16 -16 -16 -15 -15 -15 -14 -14 -13 -12 -11 -10 -10 -8
-14 -14 -15 -15 -15 -15 -15 -15 -16 -16 -16 -16 -16 -16 -16 -16 -16 -17 -17 -17 -17 -18 -18 -18 -17 -17 -16 -16 -16 -15 -15 -14 -13 -13 -12 -11 -10 -8
-14 -15 -15 -16 -15 -15 -15 -16 -16 -16 -16 -16 -16 -16 -17 -17 -17 -17 -17 -18 -18 -18 -19 -18 -18 -17 -16 -16 -16 -16 -16 -15 -14 -13 -12 -11 -10 -9
-14 -15 -16 -16 -16 -15 -16 -16 -16 -17 -17 -17 -17 -17 -17 -17 -17 -18 -19 -19 -19 -19 -19 -19 -18 -17 -16 -17 -16 -16 -16 -15 -14 -13 -13 -12 -11 -10
-15 -15 -16 -16 -16 -15 -16 -16 -16 -17 -17 -17 -17 -17 -17 -18 -18 -19 -19 -19 -19 -19 -19 -18 -19 -18 -17 -17 -16 -16 -16 -16 -15 -14 -14 -12 -11 -11
-15 -15 -16 -16 -16 -17 -17 -17 -18 -18 -18 -18 -18 -18 -18 -18 -19 -19 -19 -19 -19 -20 -20 -19 -19 -18 -18 -17 -17 -17 -16 -16 -14 -14 -13 -13 -11 -11
-15 -16 -16 -16 -16 -17 -17 -17 -18 -18 -18 -18 -18 -18 -18 -19 -19 -19 -19 -19 -19 -20 -20 -19 -19 -19 -19 -18 -18 -17 -17 -16 -15 -14 -13 -12 -12 -11
-15 -16 -16 -16 -17 -17 -17 -17 -18 -18 -18 -18 -18 -18 -18 -19 -19 -19 -20 -20 -20 -20 -20 -20 -19 -19 -18 -18 -18 -18 -17 -16 -15 -14 -14 -13 -13 -12
-16 -16 -16 -16 -17 -17 -17 -18 -18 -18 -18 -18 -18 -18 -19 -19 -19 -21 -21 -20 -21 -20 -21 -20 -20 -19 -19 -18 -18 -17 -17 -16 -15 -15 -14 -13 -13 -12
-16 -16 -16 -17 -17 -17 -18 -18 -18 -18 -18 -18 -18 -18 -19 -19 -19 -20 -20 -20 -20 -20 -20 -20 -20 -19 -19 -19 -18 -17 -17 -16 -15 -15 -14 -14 -13 -13
-16 -16 -17 -17 -17 -17 -18 -18 -18 -18 -18 -18 -18 -18 -19 -19 -20 -20 -19 -20 -19 -19 -19 -20 -19 -19 -19 -18 -18 -18 -17 -17 -16 -15 -15 -14 -14 -13
-16 -16 -17 -17 -17 -17 -17 -17 -18 -18 -18 -18 -19 -18 -19 -19 -19 -19 -19 -19 -19 -19 -19 -19 -19 -19 -19 -19 -18 -18 -18 -17 -17 -16 -15 -14 -14 -14
-16 -16 -17 -17 -17 -17 -17 -17 -17 -18 -18 -18 -19 -19 -19 -19 -19 -19 -19 -19 -19 -19 -19 -18 -19 -19 -19 -18 -18 -18 -18 -18 -17 -16 -15 -15 -14 -14
-16 -16 -17 -17 -17 -17 -17 -17 -17 -18 -18 -18 -19 -19 -19 -19 -19 -19 -19 -19 -19 -19 -18 -18 -18 -19 -19 -18 -18 -18 -18 -18 -18 -17 -16 -15 -15 -15
-16 -16 -17 -17 -17 -17 -17 -17 -17 -17 -18 -18 -18 -19 -19 -19 -19 -19 -19 -19 -19 -19 -19 -18 -18 -18 -18 -18 -18 -18 -18 -18 -17 -17 -16 -15 -15 -15
-16 -17 -17 -17 -17 -17 -17 -17 -17 -17 -17 -18 -18 -19 -19 -19 -19 -19 -19 -19 -19 -19 -19 -19 -18 -19 -18 -18 -18 -18 -18 -18 -17 -17 -17 -17 -16 -15
-16 -17 -17 -17 -17 -17 -17 -17 -17 -17 -17 -17 -18 -18 -19 -19 -19 -19 -19 -19 -19 -19 -19 -19 -18 -19 -18 -18 -18 -18 -18 -18 -18 -18 -17 -17 -16 -16
-16 -16 -17 -17 -17 -17 -17 -17 -17 -18 -17 -17 -18 -18 -19 -19 -19 -19 -19 -19 -19 -19 -19 -19 -19 -19 -19 -18 -18 -18 -18 -18 -18 -18 -18 -18 -17 -17
-16 -16 -17 -17 -17 -17 -17 -17 -17 -18 -17 -17 -17 -18 -18 -19 -19 -19 -19 -19 -19 -19 -19 -18 -18 -18 -19 -19 -18 -18 -18 -18 -18 -18 -18 -18 -18 -17
-16 -17 -17 -17 -17 -17 -17 -18 -18 -18 -18 -18 -18 -18 -18 -18 -19 -19 -19 -19 -19 -19 -19 -19 -19 -19 -19 -19 -19 -18 -18 -18 -18 -18 -18 -18 -18 -18

GFSNE_700_temp_027.txt.gz
Temp
-9 -10 -11 -12 -13 -13 -13 -13 -14 -14 -14 -14 -14 -15 -15 -15 -14 -14 -15 -14 -14 -14 -14 -14 -14 -14 -13 -13 -13 -13 -12 -12 -11 -10 -10 -10 -9 -8
-10 -11 -12 -12 -13 -13 -14 -14 -14 -15 -15 -15 -15 -15 -15 -15 -15 -15 -15 -15 -15 -15 -15 -14 -14 -14 -13 -13 -13 -13 -13 -13 -12 -11 -11 -10 -10 -9
-12 -12 -13 -13 -14 -14 -14 -14 -15 -15 -15 -15 -15 -15 -15 -15 -15 -16 -15 -15 -15 -15 -15 -15 -15 -14 -14 -14 -14 -14 -14 -13 -13 -13 -12 -11 -11 -10
-13 -13 -13 -14 -14 -14 -15 -15 -15 -16 -16 -16 -15 -15 -15 -16 -16 -16 -16 -16 -16 -15 -16 -16 -16 -16 -16 -15 -15 -15 -15 -14 -14 -14 -13 -12 -11 -10
-14 -14 -14 -14 -15 -15 -15 -15 -16 -16 -16 -16 -16 -16 -16 -16 -16 -16 -16 -16 -16 -16 -17 -17 -18 -18 -18 -17 -17 -16 -16 -16 -15 -14 -14 -13 -12 -11
-14 -14 -14 -14 -15 -15 -14 -15 -16 -16 -16 -16 -16 -16 -16 -17 -17 -17 -16 -17 -17 -17 -18 -18 -18 -18 -18 -17 -17 -17 -16 -16 -16 -15 -14 -14 -13 -12
-14 -14 -14 -15 -15 -15 -15 -16 -16 -16 -17 -17 -17 -17 -17 -17 -17 -17 -17 -17 -17 -18 -18 -18 -18 -18 -18 -17 -17 -17 -16 -16 -16 -15 -15 -14 -13 -13
-14 -15 -15 -15 -15 -15 -16 -16 -16 -17 -17 -17 -17 -17 -17 -17 -17 -17 -18 -17 -17 -18 -19 -18 -19 -19 -19 -18 -17 -17 -17 -16 -17 -16 -16 -15 -14 -13
-15 -15 -15 -15 -15 -16 -16 -17 -17 -18 -18 -18 -17 -18 -18 -18 -18 -18 -18 -18 -19 -19 -18 -18 -19 -19 -19 -18 -18 -17 -17 -17 -17 -17 -16 -15 -14 -13
-15 -15 -15 -15 -16 -16 -16 -17 -17 -18 -18 -18 -18 -18 -18 -18 -18 -18 -19 -19 -19 -20 -20 -18 -19 -19 -18 -18 -18 -18 -17 -17 -17 -17 -16 -15 -14 -13
-15 -15 -15 -16 -16 -16 -17 -17 -17 -18 -18 -18 -18 -18 -18 -18 -19 -19 -19 -19 -19 -20 -20 -19 -19 -19 -19 -18 -18 -18 -18 -17 -16 -16 -16 -15 -14 -13
-15 -15 -16 -16 -16 -17 -17 -17 -17 -18 -18 -18 -18 -18 -18 -19 -19 -19 -19 -19 -19 -18 -19 -20 -19 -20 -19 -19 -19 -18 -18 -17 -16 -16 -16 -15 -14 -13
-15 -16 -16 -16 -16 -17 -17 -17 -17 -17 -18 -18 -18 -18 -18 -19 -19 -19 -19 -19 -19 -19 -20 -19 -19 -20 -19 -19 -19 -18 -18 -17 -17 -16 -15 -14 -14 -13
-16 -16 -16 -16 -16 -17 -17 -17 -17 -18 -18 -18 -18 -18 -18 -19 -19 -19 -19 -19 -19 -19 -19 -19 -19 -19 -19 -19 -18 -18 -18 -18 -17 -16 -15 -15 -14 -14
-16 -16 -17 -16 -17 -17 -17 -17 -17 -17 -17 -18 -18 -18 -18 -18 -19 -19 -19 -19 -19 -19 -19 -19 -19 -19 -19 -19 -19 -18 -18 -18 -18 -16 -15 -15 -14 -14
-16 -16 -17 -17 -17 -17 -17 -17 -17 -17 -17 -17 -18 -18 -18 -19 -19 -19 -19 -19 -19 -19 -18 -19 -19 -19 -19 -19 -18 -19 -18 -18 -17 -17 -15 -15 -14 -14
-16 -16 -16 -17 -16 -17 -17 -17 -17 -17 -17 -17 -17 -18 -18 -19 -19 -19 -19 -19 -19 -19 -19 -19 -19 -19 -19 -18 -18 -18 -18 -18 -18 -17 -16 -16 -15 -15
-16 -16 -16 -16 -17 -17 -17 -17 -17 -17 -17 -17 -17 -18 -18 -19 -19 -19 -19 -19 -19 -19 -19 -18 -18 -19 -19 -18 -18 -18 -18 -18 -18 -18 -17 -16 -16 -15
-16 -16 -16 -17 -17 -17 -17 -17 -17 -17 -17 -17 -17 -17 -18 -18 -19 -19 -19 -19 -19 -19 -19 -19 -18 -19 -19 -19 -18 -19 -19 -18 -18 -18 -17 -16 -16 -16
-16 -16 -16 -16 -17 -17 -17 -17 -17 -17 -17 -17 -17 -17 -17 -18 -19 -19 -19 -19 -19 -19 -19 -19 -19 -19 -18 -19 -18 -18 -18 -18 -18 -18 -17 -17 -17 -16
-16 -16 -16 -16 -17 -17 -17 -17 -17 -18 -18 -18 -18 -17 -17 -18 -18 -19 -19 -19 -19 -19 -19 -19 -19 -19 -19 -18 -19 -18 -18 -18 -18 -18 -18 -18 -17 -17
-17 -17 -16 -16 -16 -17 -17 -17 -17 -18 -18 -18 -18 -18 -17 -17 -18 -18 -19 -19 -19 -19 -19 -19 -19 -19 -19 -19 -18 -18 -18 -18 -18 -18 -18 -18 -18 -18
-17 -17 -17 -17 -17 -17 -17 -17 -17 -18 -18 -18 -18 -18 -18 -18 -18 -18 -19 -19 -19 -19 -19 -19 -19 -19 -19 -19 -19 -18 -18 -18 -18 -19 -18 -18 -18 -18

GFSNE_700_temp_033.txt.gz
Temp
-8 -9 -9 -9 -9 -10 -12 -12 -13 -13 -13 -14 -14 -15 -15 -15 -14 -14 -14 -14 -14 -14 -14 -14 -14 -14 -14 -14 -14 -13 -13 -13 -13 -13 -12 -12 -11 -11
-9 -10 -10 -10 -10 -11 -12 -14 -14 -14 -14 -14 -14 -14 -15 -15 -15 -15 -15 -15 -15 -15 -14 -14 -14 -14 -15 -15 -15 -14 -14 -14 -13 -13 -13 -12 -12 -11
-10 -10 -10 -11 -11 -13 -14 -14 -14 -14 -14 -14 -14 -14 -15 -15 -15 -16 -15 -15 -15 -15 -15 -15 -15 -16 -16 -16 -15 -15 -14 -14 -14 -13 -13 -13 -12 -12
-10 -11 -11 -12 -13 -13 -14 -14 -15 -15 -15 -14 -14 -15 -15 -16 -16 -16 -16 -16 -16 -16 -16 -16 -16 -16 -15 -15 -15 -15 -15 -15 -14 -14 -13 -13 -13 -12
-11 -11 -12 -13 -13 -14 -14 -15 -15 -15 -15 -15 -15 -16 -16 -16 -16 -17 -17 -16 -16 -17 -17 -16 -16 -16 -16 -16 -16 -16 -16 -16 -15 -15 -14 -13 -13 -13
-11 -12 -12 -13 -13 -14 -15 -15 -15 -15 -15 -16 -16 -16 -16 -17 -17 -17 -16 -17 -17 -17 -17 -17 -17 -17 -16 -16 -16 -17 -17 -17 -16 -16 -16 -15 -15 -14
-12 -12 -13 -13 -14 -15 -15 -15 -15 -15 -16 -16 -16 -16 -16 -17 -17 -17 -17 -17 -17 -17 -17 -17 -17 -17 -17 -17 -17 -17 -18 -18 -17 -17 -17 -17 -16 -15
-12 -13 -13 -14 -14 -15 -15 -15 -15 -16 -16 -16 -16 -17 -17 -17 -17 -17 -17 -17 -16 -18 -17 -17 -19 -18 -18 -18 -18 -18 -18 -18 -18 -18 -17 -17 -17 -16
-13 -13 -14 -14 -15 -15 -15 -15 -16 -16 -16 -16 -16 -17 -17 -17 -17 -17 -18 -18 -18 -18 -18 -18 -20 -18 -19 -18 -18 -18 -18 -18 -18 -18 -17 -17 -16 -16
-13 -13 -14 -14 -15 -15 -15 -16 -16 -16 -16 -17 -17 -17 -17 -17 -18 -18 -18 -18 -18 -19 -20 -19 -19 -19 -19 -19 -18 -18 -18 -18 -18 -18 -18 -17 -17 -16
-13 -14 -14 -15 -15 -16 -16 -16 -16 -16 -16 -17 -17 -17 -17 -17 -18 -18 -18 -18 -18 -19 -20 -19 -19 -18 -19 -19 -19 -19 -19 -19 -18 -18 -18 -17 -17 -16
-14 -14 -15 -15 -16 -16 -16 -16 -16 -16 -16 -17 -17 -17 -17 -18 -18 -18 -18 -18 -18 -18 -20 -19 -19 -19 -18 -19 -20 -19 -19 -19 -18 -17 -17 -17 -16 -16
-14 -15 -15 -15 -16 -16 -16 -16 -16 -17 -17 -16 -16 -16 -17 -17 -18 -18 -19 -18 -19 -19 -19 -19 -19 -19 -19 -19 -19 -19 -19 -19 -18 -18 -17 -16 -16 -16
-15 -15 -16 -16 -16 -17 -17 -16 -17 -17 -17 -16 -16 -16 -17 -17 -17 -18 -19 -19 -19 -19 -19 -19 -19 -19 -19 -19 -18 -19 -18 -18 -18 -18 -18 -17 -16 -16
-15 -16 -16 -16 -16 -17 -17 -17 -17 -17 -17 -17 -17 -17 -17 -17 -17 -18 -19 -19 -19 -19 -19 -19 -19 -19 -19 -19 -18 -18 -18 -18 -18 -18 -17 -16 -16 -15
-15 -16 -16 -17 -17 -17 -17 -17 -17 -17 -17 -17 -17 -17 -17 -17 -17 -17 -18 -19 -19 -19 -19 -19 -19 -19 -19 -19 -19 -18 -18 -18 -18 -18 -17 -16 -15 -15
-16 -16 -16 -16 -17 -17 -17 -17 -17 -17 -17 -17 -17 -17 -17 -17 -17 -17 -18 -19 -19 -19 -19 -20 -19 -19 -19 -19 -19 -18 -18 -18 -18 -18 -17 -16 -15 -15
-17 -16 -17 -17 -17 -17 -17 -17 -17 -17 -17 -17 -17 -18 -17 -17 -17 -18 -18 -19 -19 -19 -19 -19 -19 -19 -19 -19 -19 -18 -18 -18 -17 -18 -17 -17 -16 -15
-17 -17 -17 -17 -17 -17 -17 -17 -17 -17 -17 -17 -17 -18 -18 -18 -17 -18 -18 -19 -19 -19 -19 -19 -19 -19 -19 -19 -19 -19 -19 -18 -17 -18 -18 -17 -16 -16
-18 -18 -18 -18 -17 -17 -17 -17 -17 -17 -17 -17 -18 -18 -18 -18 -18 -18 -18 -18 -19 -19 -19 -19 -19 -19 -19 -19 -19 -18 -19 -19 -18 -17 -17 -17 -16 -16
-17 -18 -18 -18 -18 -17 -17 -18 -17 -17 -17 -17 -18 -18 -18 -18 -18 -18 -18 -18 -19 -19 -19 -19 -19 -19 -19 -19 -19 -18 -18 -19 -18 -18 -18 -17 -17 -16
-17 -18 -18 -18 -18 -17 -17 -17 -17 -17 -17 -17 -18 -18 -18 -18 -18 -18 -18 -18 -19 -19 -19 -19 -19 -19 -19 -19 -19 -19 -18 -18 -18 -18 -18 -18 -17 -17
-18 -18 -18 -18 -18 -18 -17 -17 -17 -17 -18 -18 -18 -18 -18 -18 -18 -18 -18 -18 -19 -19 -19 -19 -19 -19 -20 -19 -19 -19 -19 -19 -19 -19 -19 -18 -18 -18

GFSNE_700_temp_036.txt.gz
Temp
-7 -7 -8 -9 -9 -10 -11 -11 -11 -11 -11 -12 -13 -14 -14 -15 -15 -15 -15 -14 -14 -14 -14 -14 -14 -14 -14 -14 -14 -14 -13 -13 -13 -13 -12 -12 -12 -12
-7 -8 -9 -10 -10 -11 -11 -11 -12 -13 -13 -13 -14 -14 -14 -15 -15 -15 -15 -15 -15 -15 -15 -15 -15 -15 -15 -15 -15 -15 -14 -14 -14 -14 -14 -13 -13 -12
-8 -9 -10 -10 -10 -11 -11 -12 -13 -14 -14 -14 -14 -14 -14 -15 -15 -15 -15 -15 -16 -16 -16 -16 -16 -16 -16 -16 -16 -15 -15 -15 -14 -14 -14 -14 -13 -13
-9 -10 -10 -10 -10 -11 -12 -13 -14 -14 -14 -14 -14 -14 -15 -15 -16 -16 -16 -16 -17 -16 -16 -17 -16 -16 -16 -16 -16 -15 -15 -15 -15 -14 -14 -14 -14 -14
-10 -10 -10 -10 -11 -12 -13 -13 -14 -14 -15 -14 -14 -15 -15 -16 -16 -16 -17 -17 -17 -17 -17 -17 -17 -17 -16 -16 -16 -16 -15 -15 -15 -15 -15 -15 -14 -14
-10 -10 -10 -11 -12 -13 -13 -14 -14 -15 -15 -15 -15 -15 -16 -16 -16 -16 -17 -17 -17 -17 -18 -17 -17 -17 -17 -16 -16 -16 -16 -16 -16 -16 -16 -16 -15 -15
-10 -11 -11 -12 -13 -13 -14 -14 -15 -15 -15 -15 -15 -15 -16 -16 -16 -17 -17 -17 -17 -18 -17 -18 -18 -18 -18 -17 -17 -17 -17 -16 -16 -17 -17 -17 -16 -16
-10 -11 -12 -13 -13 -14 -14 -14 -15 -15 -15 -15 -16 -16 -16 -16 -16 -17 -17 -17 -17 -18 -17 -17 -19 -18 -18 -18 -18 -17 -17 -17 -17 -17 -17 -17 -17 -17
-11 -12 -12 -13 -14 -14 -14 -15 -15 -15 -15 -16 -16 -16 -16 -16 -16 -16 -17 -18 -18 -18 -18 -17 -19 -18 -19 -19 -18 -17 -18 -18 -18 -18 -18 -18 -18 -17
-11 -12 -13 -13 -14 -14 -15 -15 -16 -16 -16 -16 -16 -16 -16 -16 -16 -16 -17 -17 -18 -19 -19 -17 -19 -19 -18 -19 -18 -18 -18 -18 -18 -18 -18 -18 -18 -18
-12 -13 -13 -14 -15 -15 -15 -16 -16 -16 -16 -16 -16 -16 -16 -16 -16 -16 -17 -17 -18 -18 -19 -19 -19 -18 -18 -19 -19 -19 -19 -19 -18 -18 -18 -18 -18 -17
-12 -13 -14 -14 -15 -15 -16 -16 -16 -17 -16 -17 -17 -17 -16 -16 -17 -17 -17 -17 -18 -18 -19 -18 -19 -19 -18 -18 -19 -19 -19 -19 -19 -18 -18 -18 -17 -17
-13 -13 -14 -15 -15 -16 -16 -16 -17 -17 -17 -17 -17 -17 -17 -17 -17 -17 -17 -17 -18 -18 -19 -19 -19 -19 -19 -19 -19 -19 -19 -19 -19 -18 -18 -18 -18 -17
-13 -14 -15 -15 -16 -16 -16 -17 -17 -17 -17 -17 -17 -17 -17 -17 -17 -17 -17 -17 -18 -18 -19 -19 -19 -19 -19 -19 -19 -19 -18 -18 -18 -18 -18 -18 -18 -17
-14 -15 -15 -16 -16 -16 -16 -17 -17 -17 -17 -17 -17 -17 -17 -17 -17 -17 -17 -17 -18 -19 -19 -19 -19 -19 -19 -19 -19 -19 -18 -18 -18 -18 -18 -17 -16 -16
-16 -16 -16 -16 -16 -17 -17 -17 -17 -17 -17 -17 -17 -17 -18 -18 -18 -17 -17 -17 -18 -19 -19 -19 -19 -19 -19 -19 -19 -19 -18 -18 -18 -18 -17 -17 -16 -15
-16 -16 -16 -16 -17 -17 -17 -17 -17 -17 -17 -17 -17 -17 -18 -18 -18 -18 -17 -17 -18 -18 -19 -19 -19 -19 -19 -19 -19 -19 -19 -18 -18 -18 -17 -17 -16 -15
-17 -16 -16 -17 -18 -18 -17 -17 -18 -18 -17 -17 -17 -17 -18 -18 -18 -18 -18 -17 -18 -18 -19 -19 -19 -19 -19 -19 -19 -19 -19 -18 -18 -18 -18 -17 -16 -16
-17 -16 -16 -17 -18 -18 -18 -18 -18 -18 -18 -17 -17 -18 -18 -18 -18 -18 -18 -17 -18 -18 -19 -19 -19 -19 -19 -19 -19 -19 -19 -19 -18 -18 -18 -17 -17 -16
-17 -17 -17 -17 -18 -18 -18 -18 -18 -18 -18 -17 -17 -18 -18 -18 -18 -18 -18 -18 -18 -19 -19 -19 -19 -19 -19 -19 -19 -19 -19 -19 -19 -18 -17 -17 -16 -16
-18 -17 -17 -17 -18 -18 -18 -18 -18 -18 -18 -18 -17 -17 -18 -18 -18 -18 -18 -18 -18 -18 -19 -19 -19 -19 -19 -19 -19 -19 -19 -19 -19 -19 -18 -17 -17 -16
-18 -18 -18 -18 -18 -18 -19 -18 -18 -18 -18 -17 -18 -18 -17 -18 -18 -18 -18 -18 -18 -18 -19 -19 -19 -19 -19 -19 -19 -19 -19 -19 -19 -19 -18 -18 -17 -17
-18 -18 -18 -18 -19 -19 -19 -18 -18 -18 -18 -18 -18 -18 -18 -18 -18 -18 -18 -18 -18 -18 -19 -19 -19 -19 -20 -20 -19 -19 -19 -19 -19 -19 -19 -18 -18 -18

GFSNE_700_temp_042.txt.gz
Temp
-4 -4 -5 -6 -6 -6 -7 -7 -8 -8 -8 -11 -12 -13 -11 -11 -12 -12 -13 -13 -14 -14 -14 -14 -14 -14 -14 -14 -14 -14 -14 -14 -14 -14 -13 -13 -13 -12
-5 -6 -6 -7 -7 -7 -8 -8 -9 -9 -9 -10 -12 -13 -13 -13 -13 -13 -14 -14 -14 -14 -13 -14 -14 -14 -15 -15 -15 -15 -15 -15 -15 -15 -15 -14 -13 -13
-6 -7 -7 -7 -7 -8 -9 -10 -10 -10 -10 -11 -13 -14 -13 -13 -14 -14 -14 -14 -14 -14 -14 -14 -14 -15 -15 -15 -15 -15 -16 -16 -16 -16 -15 -15 -14 -14
-7 -7 -7 -8 -8 -9 -10 -10 -11 -12 -13 -11 -12 -13 -14 -14 -14 -14 -14 -14 -14 -14 -14 -14 -14 -15 -16 -16 -16 -16 -16 -16 -16 -16 -15 -15 -15 -14
-7 -8 -8 -9 -9 -10 -11 -11 -13 -13 -14 -13 -12 -13 -14 -14 -14 -14 -14 -15 -15 -14 -14 -14 -14 -16 -16 -16 -16 -17 -17 -16 -16 -16 -16 -15 -15 -14
-8 -8 -9 -10 -10 -11 -11 -13 -13 -12 -13 -13 -13 -14 -14 -15 -15 -15 -15 -15 -15 -15 -15 -15 -15 -16 -16 -17 -17 -17 -17 -17 -17 -17 -16 -16 -15 -15
-9 -9 -10 -10 -11 -11 -12 -12 -13 -13 -14 -14 -14 -14 -15 -15 -15 -15 -15 -15 -15 -15 -15 -15 -15 -17 -17 -17 -17 -17 -18 -17 -17 -17 -17 -16 -16 -16
-9 -10 -10 -10 -11 -11 -11 -12 -12 -13 -14 -14 -14 -15 -15 -16 -16 -16 -16 -16 -15 -15 -15 -15 -16 -16 -17 -19 -18 -18 -18 -18 -18 -17 -17 -17 -16 -16
-10 -10 -11 -11 -11 -12 -12 -12 -13 -13 -14 -15 -15 -15 -16 -16 -16 -16 -16 -16 -16 -16 -16 -15 -16 -16 -17 -19 -18 -18 -18 -18 -18 -17 -17 -17 -17 -17
-10 -11 -11 -12 -12 -12 -13 -13 -13 -14 -14 -14 -15 -16 -16 -16 -16 -16 -16 -16 -16 -16 -16 -16 -16 -17 -17 -18 -19 -19 -19 -18 -18 -18 -18 -18 -18 -18
-11 -11 -12 -12 -13 -13 -14 -14 -14 -15 -16 -15 -16 -16 -16 -16 -17 -17 -17 -17 -16 -16 -16 -16 -16 -17 -17 -18 -19 -19 -19 -18 -18 -18 -18 -18 -18 -17
-11 -12 -12 -12 -13 -14 -14 -15 -15 -15 -16 -16 -16 -16 -16 -16 -17 -17 -17 -17 -17 -17 -17 -17 -17 -17 -17 -18 -18 -18 -18 -18 -18 -18 -17 -17 -17 -17
-11 -11 -12 -13 -14 -15 -15 -15 -15 -16 -16 -16 -17 -16 -16 -16 -16 -17 -17 -17 -17 -17 -17 -17 -17 -17 -18 -18 -18 -18 -18 -18 -18 -17 -17 -17 -17 -18
-12 -12 -13 -14 -14 -15 -16 -16 -16 -16 -16 -17 -17 -17 -17 -17 -17 -17 -17 -17 -17 -17 -17 -17 -17 -18 -18 -18 -18 -18 -18 -18 -18 -17 -17 -17 -17 -18
-12 -13 -13 -14 -15 -16 -16 -16 -16 -16 -16 -17 -17 -17 -17 -17 -17 -17 -17 -17 -18 -18 -17 -17 -17 -18 -18 -18 -18 -18 -18 -18 -18 -17 -17 -17 -17 -17
-13 -14 -15 -15 -16 -17 -16 -16 -16 -17 -17 -17 -17 -17 -17 -17 -17 -17 -18 -17 -18 -18 -18 -18 -17 -18 -18 -18 -18 -18 -18 -18 -18 -18 -17 -17 -17 -17
-15 -15 -16 -16 -17 -17 -17 -17 -17 -17 -17 -17 -17 -17 -17 -17 -18 -18 -18 -18 -18 -18 -18 -18 -18 -18 -18 -18 -18 -18 -18 -19 -18 -18 -17 -17 -17 -17
-16 -16 -16 -17 -17 -17 -17 -17 -17 -17 -17 -18 -18 -18 -17 -18 -18 -18 -18 -18 -18 -18 -18 -18 -18 -18 -18 -18 -19 -19 -19 -19 -19 -18 -17 -17 -17 -17
-17 -17 -18 -18 -17 -18 -17 -17 -17 -17 -17 -17 -18 -18 -18 -18 -18 -18 -18 -18 -18 -18 -18 -18 -18 -18 -19 -19 -19 -19 -19 -19 -19 -18 -17 -17 -17 -17
-18 -18 -18 -19 -19 -18 -18 -18 -18 -18 -18 -18 -18 -18 -18 -18 -18 -18 -18 -18 -18 -18 -18 -18 -18 -18 -19 -19 -19 -19 -19 -19 -19 -18 -18 -18 -17 -17
-18 -19 -19 -19 -19 -19 -19 -18 -18 -18 -18 -18 -18 -18 -18 -18 -18 -18 -18 -18 -18 -18 -18 -18 -18 -18 -19 -19 -19 -19 -19 -19 -19 -19 -18 -18 -18 -17
-20 -20 -20 -20 -20 -19 -19 -19 -18 -18 -19 -19 -19 -18 -18 -18 -18 -18 -18 -18 -18 -18 -18 -18 -18 -18 -19 -19 -19 -19 -19 -19 -19 -19 -19 -18 -18 -18
-21 -21 -21 -21 -20 -20 -19 -19 -19 -19 -19 -19 -19 -19 -18 -18 -18 -18 -18 -18 -18 -18 -18 -18 -18 -18 -19 -19 -19 -19 -19 -19 -19 -19 -19 -19 -18 -18

GFSNE_700_temp_045.txt.gz
Temp
-3 -3 -3 -5 -6 -6 -7 -7 -7 -7 -8 -9 -11 -11 -11 -12 -11 -10 -10 -11 -11 -12 -13 -13 -13 -14 -13 -13 -14 -14 -15 -15 -15 -15 -15 -15 -14 -14
-4 -4 -4 -6 -7 -7 -7 -7 -8 -8 -8 -10 -11 -11 -12 -13 -14 -12 -12 -12 -12 -13 -13 -13 -13 -13 -13 -14 -14 -14 -15 -15 -15 -15 -15 -15 -15 -15
-4 -4 -6 -6 -7 -7 -8 -8 -8 -10 -11 -11 -13 -13 -14 -14 -14 -14 -12 -13 -13 -14 -14 -14 -14 -14 -14 -14 -14 -15 -15 -16 -16 -16 -16 -16 -16 -15
-5 -5 -6 -7 -8 -8 -9 -9 -9 -11 -12 -12 -12 -14 -14 -15 -15 -15 -13 -13 -14 -14 -14 -14 -14 -14 -14 -14 -15 -15 -16 -16 -16 -17 -17 -17 -16 -16
-6 -6 -6 -8 -8 -9 -9 -10 -11 -13 -13 -14 -13 -14 -14 -15 -15 -16 -16 -15 -14 -14 -15 -15 -14 -14 -15 -15 -15 -16 -16 -17 -17 -17 -17 -17 -16 -16
-6 -6 -7 -8 -8 -9 -10 -11 -12 -13 -14 -14 -14 -15 -15 -15 -15 -16 -16 -17 -16 -15 -15 -15 -15 -15 -15 -15 -15 -16 -17 -17 -17 -17 -17 -17 -17 -17
-6 -7 -8 -8 -9 -10 -10 -11 -12 -13 -13 -14 -14 -15 -15 -15 -16 -16 -17 -17 -15 -16 -16 -15 -16 -15 -15 -15 -16 -17 -17 -17 -17 -17 -17 -17 -17 -17
-7 -7 -8 -9 -10 -10 -10 -11 -11 -12 -13 -14 -14 -15 -15 -16 -16 -17 -17 -17 -16 -16 -17 -16 -16 -15 -15 -16 -17 -17 -18 -18 -18 -18 -18 -17 -17 -17
-8 -8 -9 -10 -11 -11 -11 -11 -11 -12 -13 -13 -14 -14 -15 -16 -17 -16 -16 -16 -16 -16 -17 -16 -16 -16 -16 -16 -16 -17 -17 -18 -18 -18 -18 -17 -17 -17
-9 -9 -10 -10 -11 -11 -12 -13 -13 -13 -13 -14 -14 -14 -15 -16 -16 -16 -16 -16 -16 -16 -17 -16 -16 -16 -16 -16 -17 -17 -17 -18 -18 -18 -18 -18 -17 -17
-10 -10 -10 -11 -11 -12 -13 -13 -13 -14 -14 -15 -15 -15 -16 -16 -16 -17 -16 -17 -16 -16 -17 -17 -17 -16 -16 -16 -17 -17 -17 -18 -18 -18 -18 -18 -18 -17
-10 -10 -11 -11 -12 -12 -13 -14 -14 -14 -15 -15 -16 -16 -16 -16 -16 -16 -17 -16 -17 -16 -17 -17 -17 -17 -16 -17 -17 -18 -18 -18 -18 -18 -18 -18 -17 -17
-10 -10 -11 -12 -12 -13 -14 -15 -16 -16 -16 -16 -16 -16 -16 -16 -16 -16 -17 -17 -17 -16 -17 -17 -17 -17 -17 -17 -17 -18 -18 -18 -18 -18 -18 -18 -17 -17
-11 -11 -11 -12 -13 -14 -15 -15 -17 -16 -16 -16 -16 -16 -17 -17 -17 -17 -17 -17 -17 -17 -17 -17 -17 -17 -17 -17 -17 -18 -18 -18 -18 -18 -18 -18 -17 -17
-11 -12 -12 -13 -14 -14 -15 -15 -16 -17 -17 -16 -16 -16 -17 -17 -17 -17 -17 -17 -17 -17 -17 -17 -17 -17 -17 -17 -18 -18 -18 -18 -18 -19 -19 -17 -17 -18
-11 -12 -13 -14 -15 -15 -16 -16 -17 -17 -17 -17 -17 -17 -17 -17 -17 -17 -17 -18 -17 -17 -17 -17 -17 -17 -17 -18 -18 -18 -18 -18 -18 -19 -18 -17 -18 -17
-13 -14 -15 -15 -15 -16 -16 -17 -17 -17 -18 -17 -17 -17 -17 -17 -17 -17 -18 -18 -18 -18 -18 -17 -17 -17 -17 -18 -18 -18 -18 -18 -19 -18 -17 -17 -17 -17
-14 -15 -15 -16 -16 -17 -17 -17 -17 -17 -17 -17 -17 -17 -17 -18 -18 -18 -18 -18 -18 -18 -18 -18 -18 -18 -18 -18 -19 -19 -19 -18 -18 -18 -18 -17 -18 -17
-16 -16 -16 -16 -17 -17 -18 -18 -17 -17 -18 -18 -18 -18 -18 -18 -18 -18 -18 -18 -18 -18 -18 -18 -18 -18 -18 -18 -19 -19 -19 -19 -19 -19 -18 -17 -18 -17
-17 -17 -17 -17 -18 -18 -19 -18 -18 -18 -18 -18 -18 -18 -18 -18 -18 -18 -18 -18 -18 -18 -18 -18 -18 -18 -18 -19 -19 -19 -19 -19 -19 -19 -18 -18 -17 -18
-17 -18 -18 -19 -19 -19 -20 -19 -19 -18 -18 -18 -18 -18 -18 -18 -18 -18 -18 -18 -18 -18 -18 -18 -18 -18 -18 -19 -19 -19 -19 -19 -19 -19 -18 -18 -18 -18
-18 -19 -20 -20 -20 -20 -20 -20 -19 -19 -18 -18 -18 -19 -19 -19 -19 -18 -18 -18 -18 -18 -18 -18 -18 -18 -18 -19 -19 -19 -19 -19 -19 -19 -18 -18 -18 -18
-19 -20 -21 -21 -21 -21 -21 -21 -20 -20 -19 -19 -19 -19 -19 -19 -19 -18 -18 -18 -18 -18 -18 -18 -18 -18 -18 -19 -19 -19 -20 -19 -19 -19 -19 -19 -18 -18